| time (UTC) | temp F | wind direction | speed MPH | gust MPH | rain 1hr in | rain 24hr in | rain mn in | humidity % | barometer mb |
| 20260503211516 | 68 | 184 | 4.0 | 9.0 | 0.00 | 0.01 | 0.01 | 53 | 1017.3 |
| 20260503210025 | 68 | 172 | 2.0 | 9.0 | 0.00 | 0.01 | 0.01 | 55 | 1017.5 |
| 20260503204507 | 68 | 166 | 4.0 | 11.0 | 0.00 | 0.01 | 0.01 | 54 | 1017.6 |
| 20260503203028 | 68 | 193 | 3.0 | 9.0 | 0.00 | 0.01 | 0.01 | 54 | 1017.5 |
| 20260503201530 | 69 | 169 | 4.0 | 12.0 | 0.00 | 0.01 | 0.01 | 52 | 1017.8 |
| 20260503200034 | 71 | 336 | 2.0 | 5.0 | 0.00 | 0.01 | 0.01 | 42 | 1017.8 |
| 20260503194527 | 70 | 205 | 2.0 | 8.0 | 0.00 | 0.01 | 0.01 | 42 | 1018.0 |
| 20260503193033 | 71 | 178 | 0.0 | 3.0 | 0.00 | 0.01 | 0.01 | 41 | 1018.3 |
| 20260503191516 | 70 | 324 | 2.0 | 5.0 | 0.00 | 0.01 | 0.01 | 41 | 1018.6 |
| 20260503190020 | 70 | 263 | 2.0 | 6.0 | 0.00 | 0.01 | 0.01 | 42 | 1018.9 |
| 20260503184538 | 69 | 268 | 2.0 | 7.0 | 0.00 | 0.01 | 0.01 | 41 | 1019.1 |
| 20260503183030 | 69 | 176 | 2.0 | 7.0 | 0.00 | 0.01 | 0.01 | 41 | 1019.3 |
| 20260503181527 | 68 | 120 | 1.0 | 4.0 | 0.00 | 0.01 | 0.01 | 44 | 1019.5 |
| 20260503180033 | 69 | 26 | 3.0 | 11.0 | 0.01 | 0.01 | 0.01 | 45 | 1019.6 |
| 20260503174543 | 69 | 36 | 4.0 | 8.0 | 0.01 | 0.01 | 0.01 | 43 | 1019.6 |
| 20260503173039 | 67 | 82 | 2.0 | 4.0 | 0.01 | 0.01 | 0.01 | 45 | 1019.6 |
| 20260503171529 | 67 | 294 | 1.0 | 8.0 | 0.01 | 0.01 | 0.01 | 47 | 1019.8 |
| 20260503053019 | 52 | 317 | 0.0 | 1.0 | 0.00 | 0.01 | 0.00 | 93 | 1016.5 |
| 20260503051536 | 52 | 330 | 0.0 | 2.0 | 0.00 | 0.01 | 0.00 | 1016.2 | |
| 20260503050026 | 52 | 330 | 0.0 | 2.0 | 0.00 | 0.01 | 0.00 | 1016.2 | |
| 20260503040029 | 53 | 312 | 0.0 | 3.0 | 0.00 | 0.01 | 0.00 | 93 | 1015.6 |
| 20260503034529 | 54 | 346 | 1.0 | 4.0 | 0.00 | 0.01 | 0.01 | 93 | 1015.6 |
| 20260503033038 | 54 | 332 | 2.0 | 4.0 | 0.00 | 0.01 | 0.01 | 93 | 1015.3 |
| 20260503030045 | 54 | 349 | 0.0 | 2.0 | 0.00 | 0.01 | 0.01 | 93 | 1015.0 |
| 20260503024534 | 54 | 342 | 1.0 | 3.0 | 0.00 | 0.01 | 0.01 | 92 | 1014.7 |
| 20260503023030 | 55 | 9 | 0.0 | 2.0 | 0.00 | 0.01 | 0.01 | 92 | 1014.5 |
| 20260503021525 | 55 | 292 | 1.0 | 5.0 | 0.00 | 0.01 | 0.01 | 92 | 1014.4 |
| 20260503020024 | 55 | 318 | 1.0 | 3.0 | 0.00 | 0.01 | 0.01 | 92 | 1014.2 |
| 20260503014530 | 55 | 298 | 1.0 | 4.0 | 0.00 | 0.01 | 0.01 | 92 | 1013.9 |
| 20260503013007 | 55 | 33 | 1.0 | 3.0 | 0.00 | 0.01 | 0.01 | 92 | 1013.7 |
| 20260503011509 | 55 | 352 | 1.0 | 3.0 | 0.00 | 0.01 | 0.01 | 92 | 1013.5 |
| 20260503010010 | 56 | 352 | 2.0 | 4.0 | 0.00 | 0.01 | 0.01 | 92 | 1013.6 |
| 20260503004504 | 56 | 304 | 1.0 | 6.0 | 0.00 | 0.01 | 0.01 | 92 | 1013.5 |
| 20260503003008 | 56 | 9 | 1.0 | 5.0 | 0.00 | 0.01 | 0.01 | 92 | 1013.2 |
| 20260503001511 | 56 | 37 | 2.0 | 3.0 | 0.00 | 0.01 | 0.01 | 92 | 1012.9 |
| 20260503000027 | 56 | 338 | 1.0 | 5.0 | 0.00 | 0.01 | 0.01 | 92 | 1012.8 |
| 20260502234513 | 56 | 55 | 3.0 | 8.0 | 0.00 | 0.01 | 0.01 | 92 | 1012.6 |
| 20260502233004 | 56 | 24 | 2.0 | 6.0 | 0.00 | 0.01 | 0.01 | 92 | 1012.5 |
| 20260502231512 | 56 | 14 | 2.0 | 6.0 | 0.00 | 0.01 | 0.01 | 92 | 1012.1 |
| 20260502230016 | 56 | 315 | 5.0 | 11.0 | 0.00 | 0.01 | 0.01 | 93 | 1011.9 |
| 20260502224517 | 56 | 16 | 2.0 | 9.0 | 0.00 | 0.01 | 0.01 | 93 | 1011.8 |
| 20260502223018 | 56 | 330 | 3.0 | 9.0 | 0.00 | 0.01 | 0.01 | 93 | 1012.1 |
| 20260502221509 | 57 | 352 | 2.0 | 9.0 | 0.00 | 0.01 | 0.01 | 93 | 1011.9 |
| 20260502220012 | 57 | 40 | 2.0 | 10.0 | 0.00 | 0.01 | 0.01 | 94 | 1011.7 |
| 20260502214519 | 57 | 352 | 4.0 | 10.0 | 0.00 | 0.01 | 0.01 | 94 | 1011.6 |
| 20260502213034 | 57 | 49 | 3.0 | 12.0 | 0.00 | 0.01 | 0.01 | 94 | 1011.4 |